Location: Unspecified
(0.0000°N, 0.0000°E)
Time: 11:25:30
(UTC+00:00)

Courier 1B Rocket - Pass Details

Date: 24 November 2019
Orbit: 920 x 1202 km, 28.2° (Epoch: 13 December)

Event Time Altitude Azimuth Distance (km) Brightness Sun altitude
Rises 18:50:28 0° 317° (NW) 3,971 8.5 -14.9°
Reaches altitude 10° 18:53:33 10° 327° (NNW) 3,048 7.7 -15.6°
Maximum altitude 19:00:15 33° 28° (NNE) 1,878 6.1 -17.2°
Enters shadow 19:03:06 26° 64° (ENE) 2,156 6.2 -17.8°
Drops below altitude 10° 19:07:06 10° 90° (E) 3,129 - -18.8°
Sets 19:10:17 0° 99° (E) 4,090 - -19.5°
